This demonstration page uses our WeatherBlox Daily Observations layout. Learn more.

39.29038, -76.61219

Hourly Observations for August 13, 2019

Temp ( °F °C ) Dew Point ( °F °C ) Humidity (%) Winds ( mph kmh ) Pressure ( in mb ) Visibility ( mi km ) Precip ( " mm )
12:54 am 00:54 undefined 80 26.7 68 20 67 67 undefined N/A 29.85 1011 N/A 0 0
1:54 am 01:54 undefined 79 26.1 67 19.4 67 67 undefined N/A 29.85 1011 N/A 0 0
2:54 am 02:54 undefined 79 26.1 66 18.9 65 65 undefined N/A 29.85 1011 N/A 0 0
3:54 am 03:54 undefined 78 25.6 66 18.9 67 67 undefined N/A 29.83 1010 N/A 0 0
4:54 am 04:54 undefined 78 25.6 65 18.3 64 64 undefined N/A 29.83 1010 N/A 0 0
5:54 am 05:54 undefined 78 25.6 65 18.3 64 64 undefined N/A 29.83 1010 N/A 0 0
6:54 am 06:54 undefined 78 25.6 66 18.9 67 67 undefined N/A 29.83 1010 N/A 0 0
7:54 am 07:54 undefined 76 24.4 69 20.6 79 79 undefined N/A 29.83 1010 N/A 0.02 0.508
8:54 am 08:54 undefined 78 25.6 68 20 71 71 undefined N/A 29.83 1010 N/A 0 0
9:54 am 09:54 undefined 78 25.6 69 20.6 74 74 undefined N/A 29.83 1010 N/A 0 0
10:54 am 10:54 undefined 79 26.1 69 20.6 72 72 undefined N/A 29.83 1010 N/A 0 0
11:54 am 11:54 undefined 79 26.1 70 21.1 74 74 undefined N/A 29.83 1010 N/A 0 0
12:54 pm 12:54 undefined 76 24.4 71 21.7 85 85 undefined N/A 29.83 1010 N/A 0.03 0.762
1:54 pm 13:54 undefined 78 25.6 72 22.2 82 82 undefined N/A 29.8 1009 N/A 0.06 1.524
2:54 pm 14:54 undefined 81 27.2 71 21.7 72 72 undefined N/A 29.77 1008 N/A 0 0
3:54 pm 15:54 undefined 83 28.3 71 21.7 67 67 undefined N/A 29.77 1008 N/A 0 0
4:54 pm 16:54 undefined 82 27.8 72 22.2 72 72 undefined N/A 29.77 1008 N/A 0 0
5:54 pm 17:54 undefined 81 27.2 72 22.2 74 74 undefined N/A 29.74 1007 N/A 0 0
6:54 pm 18:54 undefined 80 26.7 73 22.8 79 79 undefined N/A 29.77 1008 N/A 0 0
7:54 pm 19:54 undefined 80 26.7 73 22.8 79 79 undefined N/A 29.77 1008 N/A 0 0
8:54 pm 20:54 undefined 80 26.7 74 23.3 82 82 undefined N/A 29.77 1008 N/A 0 0
9:54 pm 21:54 undefined 80 26.7 74 23.3 82 82 undefined N/A 29.77 1008 N/A 0 0
10:54 pm 22:54 undefined 80 26.7 74 23.3 82 82 undefined N/A 29.77 1008 N/A 0 0
11:54 pm 23:54 undefined 78 25.6 74 23.3 87 87 undefined N/A 29.77 1008 N/A 0.01 0.254

Powered by AerisWeather